TimeCST,TemperatureF,Dew PointF,Humidity,Sea Level PressureIn,VisibilityMPH,Wind Direction,Wind SpeedMPH,Gust SpeedMPH,PrecipitationIn,Events,Conditions,WindDirDegrees,DateUTC
12:52 AM,30.9,23.0,72,29.64,-9999.0,West,11.5,-,N/A,,Unknown,280,2014-01-11 06:52:00
1:52 AM,32.0,24.1,73,29.64,-9999.0,WNW,12.7,-,N/A,,Unknown,300,2014-01-11 07:52:00
2:52 AM,30.9,23.0,72,29.68,-9999.0,NW,12.7,-,N/A,,Unknown,310,2014-01-11 08:52:00
3:52 AM,28.9,21.9,75,29.71,-9999.0,NW,9.2,-,N/A,,Unknown,320,2014-01-11 09:52:00
4:52 AM,28.9,21.0,72,29.74,-9999.0,NNW,6.9,-,N/A,,Unknown,340,2014-01-11 10:52:00
5:52 AM,28.0,21.0,75,29.76,-9999.0,Calm,Calm,-,N/A,,Unknown,0,2014-01-11 11:52:00
6:52 AM,25.0,19.9,81,29.79,-9999.0,NNW,8.1,-,N/A,,Unknown,340,2014-01-11 12:52:00
7:52 AM,26.1,19.0,75,29.81,-9999.0,NW,9.2,-,N/A,,Unknown,310,2014-01-11 13:52:00
8:52 AM,27.0,19.9,75,29.83,-9999.0,WNW,11.5,-,N/A,,Unknown,300,2014-01-11 14:52:00
9:52 AM,30.9,19.9,64,29.83,-9999.0,NW,8.1,-,N/A,,Unknown,310,2014-01-11 15:52:00
10:52 AM,35.1,21.9,59,29.83,-9999.0,NW,11.5,-,N/A,,Unknown,310,2014-01-11 16:52:00
11:52 AM,37.9,24.1,57,29.83,-9999.0,WNW,12.7,-,N/A,,Unknown,300,2014-01-11 17:52:00
12:52 PM,39.9,26.1,58,29.78,-9999.0,WNW,12.7,-,N/A,,Unknown,290,2014-01-11 18:52:00
1:52 PM,43.0,25.0,49,29.75,-9999.0,West,8.1,-,N/A,,Unknown,280,2014-01-11 19:52:00
2:52 PM,45.0,24.1,44,29.73,-9999.0,West,8.1,-,N/A,,Unknown,270,2014-01-11 20:52:00
3:52 PM,44.1,26.1,49,29.71,-9999.0,South,5.8,-,N/A,,Unknown,190,2014-01-11 21:52:00
4:52 PM,39.9,26.1,58,29.69,-9999.0,South,8.1,-,N/A,,Unknown,190,2014-01-11 22:52:00
5:52 PM,36.0,26.1,67,29.66,-9999.0,SSE,8.1,-,N/A,,Unknown,150,2014-01-11 23:52:00
6:52 PM,33.1,25.0,72,29.64,-9999.0,SSE,9.2,-,N/A,,Unknown,150,2014-01-12 00:52:00
7:52 PM,33.1,25.0,72,29.60,-9999.0,SSE,6.9,-,N/A,,Unknown,150,2014-01-12 01:52:00
8:52 PM,35.1,26.1,70,29.54,-9999.0,SSE,12.7,-,N/A,,Unknown,150,2014-01-12 02:52:00
9:52 PM,34.0,26.1,73,29.49,-9999.0,ESE,4.6,-,N/A,,Unknown,120,2014-01-12 03:52:00
10:52 PM,39.9,27.0,60,29.44,-9999.0,SSW,9.2,-,N/A,,Unknown,200,2014-01-12 04:52:00
11:52 PM,41.0,28.0,60,29.39,-9999.0,SW,6.9,-,N/A,,Unknown,220,2014-01-12 05:52:00